Location: �perlecques
(50.8057°N, 2.1521°E)
Time: 08:00:49
(UTC+00:00)

DX 1 - Visible Passes

Search period start: 01 April 2023 00:00
Search period end: 11 April 2023 00:00
Orbit: 614 x 627 km, 98.4° (Epoch: 31 March)

Date Brightness Start Highest point End Pass type
(mag) Time Alt. Az. Time Alt. Az. Time Alt. Az.
01 Apr ? 21:29:16 10° NE 21:29:55 13° NE 21:29:55 13° NE visible
01 Apr ? 23:05:05 10° N 23:07:06 24° NNW 23:07:06 24° NNW visible
02 Apr ? 21:46:29 10° NNE 21:47:43 18° NE 21:47:43 18° NE visible
02 Apr ? 23:22:47 10° N 23:24:54 22° NNW 23:24:54 22° NNW visible
03 Apr ? 22:03:48 10° NNE 22:05:30 23° NNE 22:05:30 23° NNE visible
03 Apr ? 23:40:34 10° NNW 23:42:42 19° NW 23:42:42 19° NW visible
04 Apr ? 22:21:13 10° NNE 22:23:18 28° NNE 22:23:18 28° NNE visible
04 Apr ? 23:58:32 10° NNW 00:00:28 15° NW 00:00:28 15° NW visible
05 Apr ? 22:38:42 10° N 22:41:04 32° N 22:41:04 32° N visible
06 Apr ? 00:16:55 10° NW 00:18:15 11° NW 00:18:15 11° NW visible
06 Apr ? 21:20:45 10° NE 21:21:38 14° NE 21:21:38 14° NE visible
06 Apr ? 22:56:15 10° N 22:58:50 32° NNW 22:58:50 32° NNW visible
07 Apr ? 21:37:51 10° NNE 21:39:25 19° NE 21:39:25 19° NE visible
07 Apr ? 23:13:52 10° N 23:16:36 29° NNW 23:16:36 29° NNW visible
08 Apr ? 21:55:05 10° NNE 21:57:10 25° NE 21:57:10 25° NE visible
08 Apr ? 23:31:34 10° N 23:34:22 24° NW 23:34:22 24° NW visible
09 Apr ? 22:12:25 10° NNE 22:14:56 33° NNE 22:14:56 33° NNE visible
09 Apr ? 23:49:24 10° NNW 23:52:07 18° NW 23:52:07 18° NW visible
10 Apr ? 22:29:50 10° NNE 22:32:41 41° NNE 22:32:41 41° NNE visible
